Overview Statistics Trail Chart Weather Telemetry Raw packets
 

This is the latest recevied weather packets stored in our database for station/object XE2RCS-1. If no packets are shown the sender has not sent any weather packets the latest 10 day(s).

<< 19 20 21 22 23 24 25 >>
Time Temp. Humidity Pressure Rain* Wind** Luminosity Snow
1788377283 29.44° C 41% 1019 hPa 0 mm - - -
1788376686 30° C 42% 1019 hPa 0 mm - - -
1788376078 28.33° C 36% 1019 hPa 0 mm - - -
1788375477 28.89° C 35% 1017 hPa 0 mm - - -
1788374875 29.44° C 33% 1015 hPa 0 mm - - -
1788373533 30° C 32% 1020 hPa 0 mm - - -
1788372931 30° C 33% 1020 hPa 0 mm - - -
1788372330 28.33° C 35% 1020 hPa 0 mm - - -
1788371728 28.33° C 36% 1018 hPa 0 mm - - -
1788371120 28.33° C 36% 1018 hPa 0 mm - - -
1788370516 27.78° C 37% 1018 hPa 0 mm - - -
1788369915 27.22° C 37% 1021 hPa 0 mm - - -
1788369328 27.22° C 38% 1021 hPa 0 mm - - -
1788368712 27.22° C 38% 1021 hPa 0 mm - - -
1788368111 27.22° C 39% 1019 hPa 0 mm - - -
1788367503 26.67° C 40% 1019 hPa 0 mm - - -
1788366902 26.67° C 41% 1019 hPa 0 mm - - -
1788365558 26.67° C 42% 1021 hPa 0 mm - - -
1788364225 26.67° C 44% 1019 hPa 0 mm - - -
1788363617 25.56° C 45% 1019 hPa 0 mm - - -
1788363012 25.56° C 45% 1021 hPa 0 mm - - -
1788362376 25.56° C 46% 1021 hPa 0 mm - - -
1788361775 25.56° C 46% 1022 hPa 0 mm - - -
1788361174 25.56° C 46% 1019 hPa 0 mm - - -
1788360557 23.89° C 57% 1019 hPa 0 mm - - -

* Rain latest hour (hover to see other rain measurements)
** Current wind speed in m/s (hover to see current wind gust speed)